Regional Weather Roundup
Issued by NWS Mobile, AL

Home | Current Version | Previous Version | Text Only | Print | Product List | Glossary On
Versions: 1 2 3 4 5 6 7 8 9 10 11 12 13 14 15 16 17 18 19 20 21 22 23 24 25 26 27 28 29 30 31 32 33 34 35 36 37 38 39 40 41 42 43 44 45 46 47 48 49
000
ASUS44 KMOB 071412
RWRMOB
REGIONAL WEATHER ROUNDUP
NATIONAL WEATHER SERVICE MOBILE AL
800 AM CST SUN FEB 07 2016

NOTE: "FAIR" INDICATES FEW OR NO CLOUDS BELOW 12,000 FEET WITH NO
      SIGNIFICANT WEATHER AND/OR OBSTRUCTIONS TO VISIBILITY.

  * THESE STATIONS ARE PART OF THE UNIVERSITY OF SOUTH ALABAMA
    MESONET AND ARE NOT UNDER NWS OR FAA QUALITY CONTROL.

ALZ061>064-071500-
COASTAL ALABAMA

CITY           SKY/WX    TMP DP  RH WIND       PRES   REMARKS
MOBILE REG APT SUNNY     37  27  67 NW3       30.29R
BROOKLEY FIELD SUNNY     40  26  57 N5        30.30S
USA CAMPUS*    NOT AVBL
DOG RIVER*     NOT AVBL


CITY           SKY/WX    TMP DP  RH WIND       PRES   REMARKS
MOUNT VERNON*  NOT AVBL
SARALAND*      NOT AVBL
BAY MINETTE*   NOT AVBL
LOXLEY*        NOT AVBL
ROBERTSDALE*   NOT AVBL
FAIRHOPE*      NOT AVBL
ELBERTA*       NOT AVBL
FOLEY*         NOT AVBL
GRAND BAY*     NOT AVBL
DAUPHIN ISLND* NOT AVBL
BON SCOUR NWR* NOT AVBL
GULF SHORES    SUNNY     38  28  67 N6        30.27F

$$

ALZ051>060-071500-
INTERIOR SOUTHWEST AND SOUTH CENTRAL ALABAMA

CITY           SKY/WX    TMP DP  RH WIND       PRES   REMARKS
GREENVILLE     NOT AVBL
EVERGREEN      SUNNY     37  25  61 NW5       30.27R
CASTLEBERRY*   NOT AVBL
ATMORE*        NOT AVBL
DIXIE*         NOT AVBL
ANDALUSIA/OPP  SUNNY     44  24  45 N7        30.24
ANDALUSIA*     NOT AVBL
FLORALA APT    SUNNY     37  24  59 VRB3      30.26R
FLORALA*       NOT AVBL

$$

FLZ001>006-071500-
WESTERN FLORIDA PANHANDLE

CITY           SKY/WX    TMP DP  RH WIND       PRES   REMARKS
PENSACOLA      SUNNY     43  24  47 N8        30.27R
NAS PENSACOLA  SUNNY     41  27  57 N5        30.26S
MILTON         SUNNY     41  24  51 N6        30.27R
WHTNG S FIELD  NOT AVBL


CITY           SKY/WX    TMP DP  RH WIND       PRES   REMARKS
WALNUT HILL*   NOT AVBL
JAY*           NOT AVBL
DUKE FIELD     SUNNY     38  23  55 NW7       30.24R
CRESTVIEW      SUNNY     40  23  50 N8        30.27R
VALPARAISO     SUNNY     41  22  46 N9        30.24R
DESTIN         SUNNY     44  26  49 N9        30.25R

$$

MSZ076-079-071500-
INTERIOR SOUTHEAST MISSISSIPPI

CITY           SKY/WX    TMP DP  RH WIND       PRES   REMARKS
LEAKESVILLE*   NOT AVBL
AGRICOLA*      NOT AVBL

$$

MARINE OBSERVATIONS

STATION/POSITION TIME  TEMP    WIND        PRES    WAVE
                       AIR SEA DIR/SP/G            HT/PER
                 (UTC) (F)     (DEG/KT/KT) (MB)    (FT/S)
PASCAGOULA       1300   36     340/  5/  5 1025.3F
PETIT BOIS ISLND 1300   45      10/ 12/ 14 1025.7F
GRAND BAY        1200   37     330/  6     1026.0R
KATRINA CUT      1300   43     360/ 13       N/A
CEDAR POINT      1300   38     350/  8     1024.7R
E DAUPHIN ISLAND 1300   44     350/ 12/ 14 1025.0S
MIDDLE BAY LIGHT 1300          340/ 11     1024.4S
USCG MOBILE BAY  1300   38 55  340/  2/  4 1026.0R
STATE DOCKS      1300   37                 1025.2R
MEAHER PARK      1300   37     350/  4     1025.7R
WEEKS BAY        1200   32                   N/A
FORT MORGAN      1300   44      20/ 12/ 13 1024.4S
12 S ORANGE BCH  1350   48 61   10/ 16/ 17 1024.1F   2/ 3
PENSACOLA BAY    1300   41 51  340/  5/  6 1024.7R

$$

SELECTED LOCATIONS ACROSS THE REGION

CITY           SKY/WX    TMP DP  RH WIND       PRES   REMARKS
NEW ORLEANS    SUNNY     42  34  73 CALM      30.31R
GULFPORT       SUNNY     37  28  70 CALM      30.30R
PASCAGOULA AP  SUNNY     39  30  70 N5        30.29S
PASCAGOULA*    NOT AVBL
HATTIESBURG    SUNNY     33  27  78 CALM      30.31R
LAUREL         SUNNY     32  27  80 CALM      30.30R
MERIDIAN       MOSUNNY   29  26  89 CALM      30.29R
JACKSON        SUNNY     34  29  82 CALM      30.29R
MONTGOMERY     SUNNY     39  25  57 NW6       30.25S
TROY           SUNNY     41  25  53 N8        30.24R
KINSTON*       NOT AVBL
GENEVA*        NOT AVBL
ASHFORD*       NOT AVBL
DOTHAN         SUNNY     38  26  62 N10       30.23R
PANAMA CITY    SUNNY     40  30  67 NW7       30.22R

$$




USA.gov is the U.S. government's official web portal to all federal, state and local government web resources and services.